COSMOS 2426 (717) (29671 NORAD) Tracking and Keplerian Element Data

This shows tracking and keplerian element data for the satellite.

Feedback or suggestion? Click here.




ElementValue
Catalog29671
NameCOSMOS 2426 (717)
Epoch Orbit10486
Epoch Day167.8771735
Epoch Year2020
RAAN267.9658
Inclination64.9682
Eccentricity0.0020358
Argument of Perigee174.3743
Mean Anonmoly306.237
Mean Motion2.1296252
Decay Rate-3.6E-07
L11 29671U 06062B 20167.87717350 -.00000036 00000-0 10000-3 0 9997
L22 29671 64.9682 267.9658 0020358 174.3743 306.2370 2.12962520104861



Live tracking and technical data element details for COSMOS 2426 (717) (NORAD 29671). COSMOS 2426 (717) can be tracked NOW for your location showing map with azimuth and elevation plus other details from your city location.







IsCatalogInMostPopularTable: catalog: 29671, numindb: 414
Update: records affected: 1



GetName: 29671 COSMOS 2426 (717)

Hit Count: updated at: Thu, 15 May 2025 10:01:34 GMT